• In Hungary
  • List of Countries
  • For 7 days
  • Water Temperature
  • Satellite Maps
  • Weather Map
  • News
  • Weather Widgets
  • user-avatar
    Login

    Hourly Weather Milaczew

    Today, 20 November, Monday

    Time Temperature Precipitation Wind Pressure Humidity
    00:00 -1°C° 0.1 mm 7 mps 737 mmHg 81%
    01:00 -1°C° 0 mm 6 mps 737 mmHg 81%
    02:00 -1°C° 0.5 mm 7 mps 737 mmHg 81%
    03:00 0°C° 0.5 mm 8 mps 738 mmHg 81%
    04:00 0°C° 0.5 mm 9 mps 738 mmHg 81%
    05:00 0°C° 0.2 mm 9 mps 739 mmHg 81%
    06:00 0°C° 0.2 mm 8 mps 740 mmHg 80%
    07:00 -1°C° 0.2 mm 8 mps 740 mmHg 80%
    08:00 -1°C° 0 mm 8 mps 741 mmHg 78%
    09:00 -1°C° 0 mm 7 mps 742 mmHg 76%
    10:00 -1°C° 0 mm 7 mps 742 mmHg 74%
    11:00 0°C° 0 mm 7 mps 742 mmHg 73%
    12:00 +1°C° 0 mm 6 mps 742 mmHg 72%
    13:00 +1°C° 0 mm 6 mps 743 mmHg 71%
    14:00 +1°C° 0.1 mm 5 mps 743 mmHg 75%
    15:00 +1°C° 0.1 mm 5 mps 743 mmHg 79%
    16:00 +1°C° 0.1 mm 4 mps 743 mmHg 83%
    17:00 0°C° 0.1 mm 4 mps 743 mmHg 85%
    18:00 0°C° 0.1 mm 4 mps 743 mmHg 87%
    19:00 0°C° 0.1 mm 4 mps 742 mmHg 88%
    20:00 +1°C° 0.1 mm 3 mps 743 mmHg 89%
    21:00 +1°C° 0.1 mm 3 mps 743 mmHg 91%
    22:00 0°C° 0.1 mm 3 mps 743 mmHg 92%
    23:00 0°C° 0 mm 3 mps 743 mmHg 93%

    Tomorrow, 21 November, Tuesday

    Time Temperature Precipitation Wind Pressure Humidity
    00:00 0°C° 0 mm 3 mps 743 mmHg 95%
    01:00 -1°C° 0 mm 2 mps 743 mmHg 96%
    02:00 -1°C° 0 mm 2 mps 743 mmHg 96%
    03:00 +1°C° 0 mm 1 mps 743 mmHg 96%
    04:00 +2°C° 0 mm 1 mps 742 mmHg 96%
    05:00 +2°C° 0 mm 1 mps 742 mmHg 96%
    06:00 +2°C° 0 mm 1 mps 742 mmHg 96%
    07:00 +2°C° 0 mm 1 mps 742 mmHg 96%
    08:00 +2°C° 0 mm 1 mps 742 mmHg 93%
    09:00 +2°C° 0 mm 2 mps 742 mmHg 91%
    10:00 +3°C° 0 mm 2 mps 742 mmHg 88%
    11:00 +3°C° 0 mm 2 mps 742 mmHg 86%
    12:00 +4°C° 0 mm 2 mps 742 mmHg 83%
    13:00 +4°C° 0 mm 2 mps 742 mmHg 80%
    14:00 +4°C° 0 mm 2 mps 742 mmHg 83%
    15:00 +3°C° 0 mm 2 mps 742 mmHg 85%
    16:00 +3°C° 0 mm 2 mps 742 mmHg 88%
    17:00 +3°C° 0 mm 2 mps 742 mmHg 89%
    18:00 +2°C° 0 mm 2 mps 742 mmHg 90%
    19:00 +2°C° 0 mm 2 mps 742 mmHg 91%
    20:00 +2°C° 0 mm 2 mps 742 mmHg 91%
    21:00 +1°C° 0 mm 2 mps 742 mmHg 92%
    22:00 +1°C° 0 mm 2 mps 743 mmHg 92%
    23:00 +1°C° 0 mm 2 mps 743 mmHg 93%

    Day after tomorrow, 22 November, Wednesday

    Time Temperature Precipitation Wind Pressure Humidity
    00:00 +1°C° 0 mm 2 mps 743 mmHg 93%
    01:00 +1°C° 0 mm 2 mps 743 mmHg 93%
    02:00 +1°C° 0 mm 2 mps 743 mmHg 93%
    03:00 +1°C° 0 mm 2 mps 742 mmHg 93%
    04:00 +1°C° 0 mm 2 mps 742 mmHg 93%
    05:00 +1°C° 0.1 mm 3 mps 742 mmHg 93%
    06:00 +1°C° 0.1 mm 3 mps 742 mmHg 93%
    07:00 +2°C° 0.1 mm 3 mps 742 mmHg 94%
    08:00 +3°C° 0.1 mm 4 mps 742 mmHg 93%
    09:00 +3°C° 0.1 mm 4 mps 742 mmHg 93%
    10:00 +4°C° 0.1 mm 4 mps 742 mmHg 93%
    11:00 +5°C° 0 mm 4 mps 741 mmHg 90%
    12:00 +6°C° 0 mm 4 mps 741 mmHg 87%
    13:00 +6°C° 0 mm 4 mps 741 mmHg 83%
    14:00 +6°C° 0 mm 4 mps 741 mmHg 85%
    15:00 +7°C° 0 mm 3 mps 742 mmHg 86%
    16:00 +5°C° 0 mm 3 mps 742 mmHg 87%
    17:00 +5°C° 0 mm 3 mps 742 mmHg 88%
    18:00 +5°C° 0 mm 3 mps 742 mmHg 88%
    19:00 +5°C° 0 mm 3 mps 742 mmHg 89%
    20:00 +4°C° 0 mm 3 mps 742 mmHg 89%
    21:00 +4°C° 0 mm 3 mps 743 mmHg 89%
    22:00 +4°C° 0 mm 3 mps 743 mmHg 90%
    23:00 +4°C° 0 mm 3 mps 743 mmHg 90%

    23 November, Thursday

    Time Temperature Precipitation Wind Pressure Humidity
    00:00 +4°C° 0 mm 3 mps 743 mmHg 89%
    01:00 +3°C° 0 mm 3 mps 743 mmHg 89%
    02:00 +3°C° 0 mm 3 mps 743 mmHg 89%
    03:00 +3°C° 0 mm 3 mps 743 mmHg 88%
    04:00 +3°C° 0 mm 3 mps 743 mmHg 87%
    05:00 +3°C° 0 mm 3 mps 743 mmHg 86%
    06:00 +3°C° 0 mm 3 mps 743 mmHg 85%
    07:00 +3°C° 0 mm 4 mps 743 mmHg 84%
    08:00 +4°C° 0 mm 4 mps 743 mmHg 78%
    09:00 +5°C° 0 mm 4 mps 743 mmHg 73%
    10:00 +6°C° 0 mm 5 mps 744 mmHg 67%
    11:00 +7°C° 0 mm 5 mps 744 mmHg 64%
    12:00 +8°C° 0 mm 5 mps 744 mmHg 61%
    13:00 +9°C° 0 mm 5 mps 743 mmHg 58%
    14:00 +8°C° 0 mm 5 mps 744 mmHg 61%
    15:00 +8°C° 0 mm 4 mps 744 mmHg 64%
    16:00 +7°C° 0 mm 4 mps 744 mmHg 68%
    17:00 +7°C° 0 mm 4 mps 745 mmHg 70%
    18:00 +6°C° 0 mm 4 mps 745 mmHg 73%
    19:00 +6°C° 0 mm 4 mps 746 mmHg 76%
    20:00 +6°C° 0 mm 4 mps 746 mmHg 78%
    21:00 +6°C° 0 mm 4 mps 746 mmHg 80%
    22:00 +6°C° 0 mm 4 mps 747 mmHg 82%
    23:00 +5°C° 0 mm 4 mps 747 mmHg 84%

    24 November, Friday

    Time Temperature Precipitation Wind Pressure Humidity
    00:00 +5°C° 0 mm 4 mps 747 mmHg 87%
    01:00 +5°C° 0 mm 4 mps 748 mmHg 89%
    02:00 +5°C° 0 mm 4 mps 748 mmHg 90%
    03:00 +5°C° 0 mm 3 mps 748 mmHg 91%
    04:00 +4°C° 0 mm 3 mps 748 mmHg 92%
    05:00 +4°C° 0 mm 3 mps 748 mmHg 92%
    06:00 +4°C° 0 mm 3 mps 748 mmHg 92%
    07:00 +4°C° 0 mm 3 mps 748 mmHg 93%
    08:00 +5°C° 0 mm 3 mps 748 mmHg 89%
    09:00 +7°C° 0 mm 3 mps 748 mmHg 86%
    10:00 +7°C° 0 mm 4 mps 749 mmHg 83%
    11:00 +8°C° 0 mm 4 mps 748 mmHg 81%
    12:00 +8°C° 0 mm 4 mps 748 mmHg 78%
    13:00 +10°C° 0 mm 4 mps 748 mmHg 76%
    14:00 +8°C° 0 mm 4 mps 748 mmHg 80%
    15:00 +8°C° 0 mm 4 mps 748 mmHg 83%
    16:00 +8°C° 0 mm 3 mps 747 mmHg 87%
    17:00 +7°C° 0 mm 4 mps 748 mmHg 88%
    18:00 +7°C° 0 mm 4 mps 748 mmHg 88%
    19:00 +7°C° 0 mm 4 mps 748 mmHg 89%
    20:00 +6°C° 0 mm 4 mps 748 mmHg 89%
    21:00 +6°C° 0 mm 4 mps 748 mmHg 88%
    22:00 +6°C° 0 mm 4 mps 748 mmHg 88%
    23:00 +6°C° 0 mm 4 mps 748 mmHg 87%

    25 November, Saturday

    Time Temperature Precipitation Wind Pressure Humidity
    00:00 +6°C° 0 mm 4 mps 747 mmHg 86%
    01:00 +6°C° 0 mm 4 mps 747 mmHg 85%
    02:00 +6°C° 0 mm 4 mps 747 mmHg 84%
    03:00 +5°C° 0 mm 4 mps 747 mmHg 83%
    04:00 +5°C° 0 mm 4 mps 747 mmHg 82%
    05:00 +5°C° 0 mm 4 mps 746 mmHg 81%
    06:00 +5°C° 0 mm 4 mps 746 mmHg 81%
    07:00 +5°C° 0 mm 4 mps 746 mmHg 80%
    08:00 +6°C° 0 mm 4 mps 746 mmHg 76%
    09:00 +7°C° 0 mm 5 mps 746 mmHg 73%
    10:00 +8°C° 0 mm 5 mps 746 mmHg 69%
    11:00 +8°C° 0 mm 5 mps 746 mmHg 67%
    12:00 +10°C° 0 mm 4 mps 745 mmHg 65%
    13:00 +10°C° 0 mm 4 mps 745 mmHg 63%
    14:00 +9°C° 0 mm 5 mps 744 mmHg 63%
    15:00 +9°C° 0 mm 5 mps 744 mmHg 63%
    16:00 +9°C° 0 mm 6 mps 744 mmHg 63%
    17:00 +9°C° 0 mm 6 mps 744 mmHg 63%
    18:00 +9°C° 0 mm 6 mps 744 mmHg 63%
    19:00 +8°C° 0 mm 7 mps 744 mmHg 63%
    20:00 +8°C° 0 mm 7 mps 744 mmHg 66%
    21:00 +6°C° 0 mm 7 mps 744 mmHg 69%
    22:00 +6°C° 0 mm 7 mps 744 mmHg 72%
    23:00 +7°C° 0 mm 6 mps 744 mmHg 73%
    Show more